SL-8 DEB, 1617

Orbit data source: Space-Track

SL-8 DEB, 1617 is space debris in LEO originally from a launch on Sat, 18 Sep 1965 UTC launched from the Tyuratam Missile And Space Complex (TTMTR). Debris objects in space refer to the collection of defunct objects orbiting the Earth. Examples of debris include non-operational satellites, rocket bodies, and fragments generated from explosions, collisions, or faulty payload assembly.

Loading next visibility...
Identifier
1617, 1965-073J
Orbit
LEO
Country
Flag of CISCIS
Related business
Manufacturer
Unknown
Mission
Spacecraft
Bus & Motor
Unknown
Mass
Unknown
Launch date (UTC)
1965-09-18 (60 years ago)
Launch vehicle
Unknown
Launch site
Tyuratam Missile And Space Complex (TTMTR)
Object type
Payload
Rocket body
Debris
Shape & HBR
Unknown shape, 0.2 m
Radar Cross Section
Medium (>0.1 m² and <1 m²)

Expand to show TLE details & history
Last TLE update: 14 hours ago

TLE from 14 hours ago
0 SL-8 DEB
1 01617U 65073J   26061.50823303 -.00000405  00000-0 -22849-2 0  9993
2 01617  56.1306 344.7695 0235918 167.9089  14.5549 12.34823495717266
Epoch: 2026-03-02T12:11Z
TLE epoch observation values (Epoch: 2026-03-02T12:11:51.333Z)
Latitude
-2.71592°
Longitude
-176.67956°
Altitude
1,349.807 km
Speed
7.265 km/s
True Right ascension
11h 06m 20s
True Declination
-2° 42' 03"
Sunlit
Object was in full shadow at epoch
Visualization orbit readout
Latitude
Unknown
Longitude
Unknown
Altitude
Unknown
Speed
Unknown
Apparent Right ascension
Unknown
Apparent Declination
Unknown
Sunlit
N/A
Visualization observer readout
Local Sidereal Time
06:17:22
Azimuth
Unknown
Elevation
Unknown
Doppler factor
Unknown
Orbital elements
Apogee altitude
1,714.968 km
Perigee altitude
1,341.908 km
Semi-major axis
7,906.575 km
Eccentricity
0.02359
Inclination
56.1306°
RAAN
344.7695°
Arg. of periapsis
167.9089°
True anomaly
15.25421°
Mean anomaly
14.5549°
Eccentric anomaly
14.90253°
Mean motion
3.08717 °/min
Orbital period
116.61 mins
BSTAR
-0.0022849
Loading maneuver chart data...
Computing Atmospheric mass density...
Loading historical data...
Loading historical data...
Loading historical data...
Loading historical data...
Loading historical data...
Loading historical data...
Loading historical data...

Documentation

Showing up to 5 results
|